STARLINK-34700, 64922

Orbit data source: Space-Track

STARLINK-34700, 64922 is a payload satellite owned by SpaceX/Seattle (US) in LEO that was launched on Sat, 26 Jul 2025 UTC via an FALCON 9 launch vehicle from the Air Force Eastern Test Range (AFETR). Payload-class satellites include a variety of spacecraft equipped with specific instruments for various scientific and technological missions. These include communications satellites like Starlink; space stations such as the ISS; scientific satellites like the Hubble; Earth observation satellites from companies like Planet Labs, Umbra, and HawkEye 360; GPS; miniature CubeSats for education and research; and military/defense satellites.

Loading next visibility...
Identifier
64922, 2025-157U
Orbit
LEO
Country
Flag of USUS
Related business
Manufacturer
SpaceX/Seattle
Mission
Operational Commercial Communications
Bus & Motor
STARLINK V2MO, Unknown motor
Mass
575 kg wet, ~530 kg dry
Launch date (UTC)
2025-07-26 (10 months ago)
Launch vehicle
FALCON 9
Launch site
Air Force Eastern Test Range (AFETR)
Object type
Payload
Rocket body
Debris
Shape & HBR
Box + 2 Pan, 17.7 m
Radar Cross Section
36.964 m², Large (>1 m²)

Expand to show TLE details & history
Last TLE update: 8 hours ago

TLE from 8 hours ago
0 STARLINK-34700
1 64922U 25157U   26145.55909117  .00020448  00000-0  70034-3 0  9993
2 64922  53.1614 348.5577 0001319  85.3846 274.7305 15.30212445 47840
Epoch: 2026-05-25T13:25Z
TLE epoch observation values (Epoch: 2026-05-25T13:25:05.477Z)
Latitude
-0.00003°
Longitude
-95.86029°
Altitude
476.003 km
Speed
7.629 km/s
True Right ascension
23h 14m 13s
True Declination
0° 00' 00"
Sunlit
Object was in daylight at epoch
Visualization orbit readout
Latitude
Unknown
Longitude
Unknown
Altitude
Unknown
Speed
Unknown
Apparent Right ascension
Unknown
Apparent Declination
Unknown
Sunlit
N/A
Visualization observer readout
Local Sidereal Time
06:09:11
Azimuth
Unknown
Elevation
Unknown
Doppler factor
Unknown
Orbital elements
Apogee altitude
476.338 km
Perigee altitude
474.53 km
Semi-major axis
6,853.571 km
Eccentricity
0.00013
Inclination
53.1614°
RAAN
348.5577°
Arg. of periapsis
85.3846°
True anomaly
274.71544°
Mean anomaly
274.7305°
Eccentric anomaly
274.72297°
Mean motion
3.82532 °/min
Orbital period
94.11 mins
BSTAR
0.00070034
Loading maneuver chart data...
Computing Atmospheric mass density...
Loading historical data...
Loading historical data...
Loading historical data...
Loading historical data...
Loading historical data...
Loading historical data...
Loading historical data...

Documentation

Showing up to 5 results
|